CZ-3C DEB, 40854

Orbit data source: Space-Track

CZ-3C DEB, 40854 is space debris in HEO originally from a launch on Fri, 24 Feb 2012 UTC launched from the Xichang Space Center, China (XSC). Debris objects in space refer to the collection of defunct objects orbiting the Earth. Examples of debris include non-operational satellites, rocket bodies, and fragments generated from explosions, collisions, or faulty payload assembly.

Loading next visibility...
Identifier
40854, 2012-008U
Orbit
HEO
Country
Flag of CNCN / PRC
Related business
Manufacturer
CALT
Mission
Spacecraft
Bus & Motor
Unknown
Mass
Unknown
Launch date (UTC)
2012-02-24 (14 years ago)
Launch vehicle
Unknown
Launch site
Xichang Space Center, China (XSC)
Object type
Payload
Rocket body
Debris
Shape & HBR
Unknown shape, 0.2 m
Radar Cross Section
Medium (>0.1 m² and <1 m²)

Expand to show TLE details & history
Last TLE update: 4 days ago

TLE from 4 days ago
0 CZ-3C DEB
1 40854U 12008U   26232.16366951 -.00000397  00000-0 -40635-2 0  9995
2 40854  20.1436 225.7613 7010141 114.7153 330.4193  2.41776364  1218
Epoch: 2026-08-20T03:55Z
TLE epoch observation values (Epoch: 2026-08-20T03:55:41.045Z)
Latitude
-0.00005°
Longitude
-161.68757°
Altitude
10,455.467 km
Speed
5.51 km/s
True Right ascension
15h 02m 57s
True Declination
0° 00' 00"
Sunlit
Object was in daylight at epoch
Visualization orbit readout
Latitude
Unknown
Longitude
Unknown
Altitude
Unknown
Speed
Unknown
Apparent Right ascension
Unknown
Apparent Declination
Unknown
Sunlit
N/A
Visualization observer readout
Local Sidereal Time
20:04:21
Azimuth
Unknown
Elevation
Unknown
Doppler factor
Unknown
Orbital elements
Apogee altitude
33,516.358 km
Perigee altitude
634.087 km
Semi-major axis
23,453.36 km
Eccentricity
0.70101
Inclination
20.1436°
RAAN
225.7613°
Arg. of periapsis
114.7153°
True anomaly
245.31219°
Mean anomaly
330.4193°
Eccentric anomaly
293.61871°
Mean motion
0.60428 °/min
Orbital period
595.75 mins
BSTAR
-0.0040635
Loading maneuver chart data...
Computing Atmospheric mass density...
Loading historical data...
Loading historical data...
Loading historical data...
Loading historical data...
Loading historical data...
Loading historical data...
Loading historical data...

Documentation

Showing up to 5 results
|